Home   Weather   Hollywood   Past weeks

Flag for USA Past Weather in Hollywood, California, USA — Yesterday and Last 2 Weeks

Now
50 °F

Overcast.


Feels Like: 50 °F
Forecast: 46 / 65 °F
Wind: No wind

Location: Bob Hope Airport

Current Time: Dec 8, 2016 at 6:29:09 am

Latest Report: Dec 8, 2016 at 5:53 am


Visibility: 10 mi

Pressure: 30.16 "Hg

Humidity: 59%

Dew Point: 36 °F

Location of HollywoodLocation

Past Weather in Hollywood — Graph

°F

Hollywood Temperature Yesterday

Maximum temperature yesterday: 62 °F (at 1:53 pm)
Minimum temperature yesterday: 47 °F (at 4:53 am)
Average temperature yesterday: 53 °F

High & Low Weather Summary for the Past Weeks

 TemperatureHumidityPressure
High76 °F (Nov 25, 1:53 pm)93% (Nov 26, 8:53 pm)30.16 "Hg (Nov 26, 8:53 pm)
Low40 °F (Nov 26, 6:53 am)7% (Dec 3, 2:53 am)29.79 "Hg (Nov 28, 3:53 pm)
Average55 °F47%30.00 "Hg
* Reported Nov 23 4:53 am — Dec 8 4:53 am, Hollywood, Weather by CustomWeather, © 2016

Note: Actual official high and low records may vary slightly from our data, if they occured in-between our weather recording intervals... More about our weather records

Advertising

Hollywood Weather History for the Previous 24 Hours

Scroll right to see more
 ConditionsComfort  
Time TempWeatherWind HumidityBarometerVisibility
4:53 am
Thu, Dec 8
48 °FOvercast.No wind66%30.15 "Hg10 mi
3:53 am47 °FPassing clouds.No wind66%30.14 "Hg10 mi
2:53 am47 °FPassing clouds.No wind69%30.14 "Hg10 mi
1:53 am47 °FClear.No wind74%30.14 "Hg10 mi
12:53 am49 °FClear.No wind69%30.14 "Hg10 mi
11:53 pm
Wed, Dec 7
49 °FClear.3 mph77%30.14 "Hg9 mi
10:53 pm49 °FClear.No wind80%30.14 "Hg9 mi
9:53 pm51 °FClear.5 mph74%30.13 "Hg10 mi
8:53 pm51 °FClear.5 mph74%30.13 "Hg10 mi
7:53 pm53 °FClear.No wind72%30.11 "Hg9 mi
6:53 pm55 °FPassing clouds.No wind69%30.10 "Hg10 mi
5:53 pm57 °FPassing clouds.No wind64%30.09 "Hg10 mi
4:53 pm57 °FClear.8 mph64%30.07 "Hg10 mi
3:53 pm60 °FSunny.5 mph56%30.05 "Hg10 mi
2:53 pm62 °FSunny.3 mph44%30.04 "Hg10 mi
1:53 pm62 °FSunny.3 mph44%30.04 "Hg10 mi
12:53 pm61 °FSunny.7 mph48%30.04 "Hg10 mi
11:53 am60 °FScattered clouds.No wind53%30.06 "Hg10 mi
10:53 am58 °FSunny.3 mph58%30.08 "Hg10 mi
9:53 am54 °FMore clouds than sun.3 mph62%30.09 "Hg6 mi
8:53 am51 °FPassing clouds.No wind69%30.08 "Hg10 mi
7:53 am49 °FPassing clouds.No wind69%30.05 "Hg10 mi
6:53 am47 °FPassing clouds.No wind77%30.03 "Hg10 mi
Weather by CustomWeather, © 2016

See weather overviewHow to use our weather pages